Home   Weather   Sligo   Past weeks
Flag for Ireland

Past Weather in Sligo, Ireland — Yesterday and Last 2 Weeks

Now
49 °F

Cool.


Feels Like: 48 °F
Forecast: 51 / 42 °F
Wind: 3 mph from North

Location: Finner

Current Time: Oct 19, 2019 at 1:08:10 am

Latest Report: Oct 19, 2019 at 12:00 am


Visibility: 9 mi

Pressure: 29.47 "Hg

Humidity: 86%

Dew Point: 45 °F

Location of SligoLocation

Past Weather in Sligo — Graph

°F

Sligo Temperature Yesterday

Maximum temperature yesterday: 54 °F (at 3:00 pm)
Minimum temperature yesterday: 43 °F (at 7:00 am)
Average temperature yesterday: 48 °F

High & Low Weather Summary for the Past Weeks

 TemperatureHumidityPressure
High61 °F (Oct 7, 3:00 pm)98% (Oct 13, 7:00 am)29.96 "Hg (Oct 13, 7:00 am)
Low43 °F (Oct 13, 7:00 am)58% (Oct 16, 5:00 pm)29.12 "Hg (Oct 4, 6:00 am)
Average52 °F84%29.52 "Hg
* Reported Oct 3 11:00 pm — Oct 18 11:00 pm, Sligo. Weather by CustomWeather, © 2019

Note: Actual official high and low records may vary slightly from our data, if they occured in-between our weather recording intervals... More about our weather records

Advertising

Sligo Weather History for the Previous 24 Hours

Scroll right to see more
 ConditionsComfort  
Time TempWeatherWind HumidityBarometerVisibility
11:00 pm
Fri, Oct 18
48 °FCool.2 mph88%29.44 "Hg8 mi
10:00 pm49 °FCool.3 mph84%29.44 "Hg9 mi
9:00 pm47 °FCool.1 mph89%29.41 "Hg7 mi
8:00 pm49 °FCool.3 mph86%29.41 "Hg7 mi
7:00 pm50 °FCool.3 mph83%29.38 "Hg7 mi
6:00 pm52 °FCool.3 mph79%29.35 "Hg8 mi
5:00 pm53 °FCool.6 mph74%29.35 "Hg9 mi
4:00 pm52 °FCool.3 mph79%29.32 "Hg9 mi
3:00 pm54 °FCool.3 mph74%29.32 "Hg9 mi
2:00 pm52 °FCool.5 mph76%29.32 "Hg8 mi
1:00 pm52 °FCool.3 mph79%29.29 "Hg6 mi
12:00 pm50 °FCool.3 mph82%29.29 "Hg4 mi
11:00 am48 °FCool.5 mph87%29.29 "Hg8 mi
10:00 am46 °FCool.3 mph90%29.26 "Hg4 mi
9:00 am45 °FQuite cool.5 mph92%29.26 "Hg6 mi
8:00 am44 °FQuite cool.3 mph93%29.26 "Hg6 mi
7:00 am43 °FQuite cool.3 mph93%29.23 "Hg7 mi
6:00 am44 °FQuite cool.5 mph92%29.23 "Hg7 mi
5:00 am44 °FDrizzle. Overcast.5 mph92%29.23 "Hg9 mi
4:00 am44 °FQuite cool.3 mph91%29.23 "Hg9 mi
3:00 am45 °FQuite cool.6 mph90%29.23 "Hg8 mi
2:00 am44 °FQuite cool.5 mph92%29.23 "Hg8 mi
1:00 am44 °FQuite cool.3 mph92%29.26 "Hg8 mi
Weather by CustomWeather, © 2019

See weather overview